Weather History for Valparaiso, IN

Change the Weather History Date:

Friday, October 19, 2012

  Actual Average Record
Temperature  
Mean Temperature 47 °F 52 °F  
Max Temperature 52 °F 62 °F 75 °F (2000)
Min Temperature 42 °F 41 °F 33 °F (1999)
Degree Days  
Heating Degree Days 18 14  
Month to date heating degree days 259 214  
Since 1 July heating degree days 394 344  
Cooling Degree Days 0 0  
Month to date cooling degree days 1 11  
Year to date cooling degree days 1050 713  
Moisture  
Dew Point 43 °F    
Average Humidity 89    
Maximum Humidity 100    
Minimum Humidity 71    
Precipitation  
Precipitation 0.10 in 0.11 in 1.20 in (2011)
Month to date precipitation 2.17 2.00  
Year to date precipitation 22.85 30.75  
Sea Level Pressure  
Sea Level Pressure 29.52 in    
Wind  
Wind Speed 7 mph (SSW)    
Max Wind Speed 13 mph    
Max Gust Speed 17 mph    
Visibility 9 miles    
Events Rain    
T = Trace of Precipitation, MM = Missing Value Source: NWS Daily Summary

Daily Weather History Graph

Daily Weather History Graph

Search for Another Location

Airport:

Trip Planner

Search our weather history database for the weather conditions in past years. The results will help you decide how hot, cold, wet, or windy it might be!

Date:

Astronomy

Oct. 19, 2012 Rise Set
Actual Time 7:05 AM CDT 6:00 PM CDT
Civil Twilight 6:36 AM CDT 6:28 PM CDT
Nautical Twilight 6:04 AM CDT 7:00 PM CDT
Astronomical Twilight 5:32 AM CDT 7:32 PM CDT
Moon 11:50 AM CDT 9:35 PM CDT
Length of Visible Light 11h 51m
Length of Day
10h 55m
Waxing Crescent, 24% of the Moon is Illuminated
Oct 19
Waxing Crescent
Oct 21
First Quarter
Oct 29
Full
Nov 6
Last Quarter
Nov 13
New

Hourly Weather History & Observations

Time (CDT) Temp. Windchill Dew Point Humidity Pressure Visibility Wind Dir Wind Speed Gust Speed Precip Events Conditions
12:53 AM 46.0 °F 41.9 °F 42.1 °F 86% 29.53 in 10.0 mi South 8.1 mph - N/A   Overcast
1:53 AM 45.0 °F 40.1 °F 42.1 °F 90% 29.52 in 10.0 mi South 9.2 mph - 0.00 in Rain Light Rain
2:53 AM 45.0 °F 40.1 °F 42.1 °F 90% 29.50 in 10.0 mi SSE 9.2 mph - 0.01 in Rain Light Rain
3:29 AM 44.6 °F 38.8 °F 42.8 °F 93% 29.49 in 10.0 mi SSE 11.5 mph 17.3 mph 0.01 in Rain Light Rain
3:53 AM 45.0 °F 40.6 °F 43.0 °F 93% 29.49 in 10.0 mi SSE 8.1 mph - 0.02 in Rain Light Rain
4:22 AM 44.6 °F 41.4 °F 42.8 °F 93% 29.48 in 8.0 mi South 5.8 mph - 0.01 in Rain Light Rain
4:36 AM 44.6 °F 40.2 °F 42.8 °F 93% 29.48 in 10.0 mi South 8.1 mph - 0.02 in Rain Light Rain
4:53 AM 45.0 °F 40.1 °F 42.1 °F 90% 29.49 in 10.0 mi SSE 9.2 mph - 0.03 in Rain Light Rain
5:20 AM 44.6 °F 40.2 °F 42.8 °F 93% 29.47 in 10.0 mi SSE 8.1 mph - 0.00 in   Overcast
5:30 AM 44.6 °F 40.2 °F 42.8 °F 93% 29.47 in 9.0 mi SSE 8.1 mph - 0.00 in   Overcast
5:53 AM 44.1 °F 39.5 °F 42.1 °F 93% 29.48 in 8.0 mi SSE 8.1 mph - 0.01 in Rain Light Rain
6:12 AM 44.6 °F 39.7 °F 42.8 °F 93% 29.47 in 10.0 mi SSE 9.2 mph - 0.01 in Rain Light Rain
6:53 AM 44.1 °F 39.5 °F 42.1 °F 93% 29.48 in 10.0 mi SSE 8.1 mph - 0.01 in Rain Light Rain
7:00 AM 44.6 °F 39.7 °F 42.8 °F 93% 29.47 in 10.0 mi South 9.2 mph - 0.00 in   Overcast
7:28 AM 44.6 °F 40.2 °F 42.8 °F 93% 29.47 in 10.0 mi SSE 8.1 mph - 0.00 in   Overcast
7:53 AM 44.1 °F 40.8 °F 43.0 °F 96% 29.48 in 3.0 mi SSE 5.8 mph - 0.00 in   Overcast
8:07 AM 44.6 °F 40.7 °F 42.8 °F 93% 29.47 in 1.8 mi SSE 6.9 mph - 0.01 in   Overcast
8:23 AM 44.6 °F 40.7 °F 44.6 °F 100% 29.47 in 2.0 mi South 6.9 mph - 0.01 in   Overcast
8:32 AM 44.6 °F 40.7 °F 44.6 °F 100% 29.47 in 3.0 mi South 6.9 mph - 0.01 in   Overcast
8:53 AM 45.0 °F 40.6 °F 44.1 °F 97% 29.49 in 3.0 mi South 8.1 mph - 0.01 in   Overcast
9:53 AM 46.9 °F - 45.0 °F 93% 29.49 in 10.0 mi SSW 8.1 mph - N/A   Overcast
10:11 AM 48.2 °F - 44.6 °F 87% 29.48 in 10.0 mi SSW 10.4 mph - N/A   Overcast
10:53 AM 48.0 °F - 44.1 °F 86% 29.50 in 10.0 mi SW 9.2 mph - N/A   Overcast
11:36 AM 48.2 °F - 44.6 °F 87% 29.49 in 10.0 mi SSW 6.9 mph - N/A   Overcast
11:44 AM 48.2 °F - 44.6 °F 87% 29.49 in 10.0 mi SSW 8.1 mph - N/A   Overcast
11:53 AM 48.9 °F - 45.0 °F 86% 29.50 in 10.0 mi SW 5.8 mph - N/A   Overcast
12:38 PM 50.0 °F - 44.6 °F 82% 29.49 in 10.0 mi SSW 6.9 mph - 0.00 in   Overcast
12:53 PM 50.0 °F - 44.1 °F 80% 29.50 in 10.0 mi SW 6.9 mph - 0.00 in   Overcast
1:53 PM 50.0 °F - 43.0 °F 77% 29.50 in 10.0 mi West 5.8 mph - N/A   Overcast
2:03 PM 50.0 °F - 42.8 °F 76% 29.50 in 10.0 mi WSW 4.6 mph - N/A   Overcast
2:53 PM 51.1 °F - 42.1 °F 71% 29.52 in 10.0 mi WSW 8.1 mph - N/A   Overcast
3:39 PM 50.0 °F - 42.8 °F 76% 29.52 in 10.0 mi WNW 6.9 mph - N/A   Overcast
3:53 PM 48.9 °F - 44.1 °F 83% 29.54 in 10.0 mi WNW 5.8 mph - 0.00 in Rain Light Rain
4:02 PM 48.2 °F - 42.8 °F 82% 29.53 in 10.0 mi WNW 5.8 mph - 0.01 in   Overcast
4:53 PM 48.9 °F - 42.1 °F 77% 29.56 in 10.0 mi WNW 6.9 mph - 0.01 in   Overcast
5:53 PM 48.0 °F - 43.0 °F 83% 29.58 in 9.0 mi WNW 5.8 mph - 0.00 in Rain Light Rain
6:53 PM 45.0 °F 42.6 °F 42.1 °F 90% 29.60 in 10.0 mi West 4.6 mph - 0.00 in   Partly Cloudy
7:20 PM 46.4 °F 42.9 °F 42.8 °F 87% 29.59 in 10.0 mi WSW 6.9 mph - N/A   Overcast
7:27 PM 46.4 °F 42.9 °F 42.8 °F 87% 29.60 in 10.0 mi West 6.9 mph - N/A   Overcast
7:53 PM 46.9 °F - 44.1 °F 90% 29.61 in 10.0 mi West 8.1 mph - N/A   Overcast
8:53 PM 45.0 °F 42.6 °F 42.1 °F 90% 29.62 in 10.0 mi WSW 4.6 mph - N/A   Mostly Cloudy
9:53 PM 45.0 °F 41.2 °F 42.1 °F 90% 29.64 in 10.0 mi WSW 6.9 mph - N/A   Mostly Cloudy
10:53 PM 44.1 °F 40.1 °F 41.0 °F 89% 29.65 in 10.0 mi WSW 6.9 mph - N/A   Partly Cloudy
11:53 PM 43.0 °F 38.8 °F 41.0 °F 93% 29.65 in 10.0 mi WSW 6.9 mph - N/A   Clear